Tracking 32418 objects as of 9-Dec-2025
HD Live streaming from Space Station
objects crossing your sky now

O3BF04

Track O3BF04 now!
10-day predictions


NORAD ID: 56367
Int'l Code: 2023-059A
Perigee: 8,064.8 km
Apogee: 8,081.4 km
Inclination: 0.1 °
Period: 287.9 minutes
Semi major axis: 14444 km
RCS: Unknown
Launch date: April 28, 2023
Source: SOCIETE EUROPEENNE DES SATELLITES (SES)
Launch site: AIR FORCE EASTERN TEST RANGE (AFETR)
Your satellite tracking list
Your tracking list is empty




NASA's NSSDC Master Catalog

Two Line Element Set (TLE):
1 56367U 23059A   25343.07928117 -.00000022  00000-0  00000+0 0  9992
2 56367   0.0500  14.2937 0005747 260.3495  85.2919  5.00114387 49097
Source of the keplerian elements: AFSPC